Omaha Offutt, NE

4:49 PM CDT on July 24, 2017 (GMT -0500)
Offutt Air Force Base

Weather History for KOFF - July, 2013

Change the Weather History Date:

Sunday, July 28, 2013

  Actual Average Record
Temperature  
Mean Temperature 61 °F -  
Max Temperature 78 °F 84 °F 95 °F (1999)
Min Temperature 44 °F 67 °F 44 °F (2013)
Degree Days  
Heating Degree Days 4    
Growing Degree Days 11 (Base 50)    
Moisture  
Dew Point 48 °F    
Average Humidity 61    
Maximum Humidity 99    
Minimum Humidity 33    
Precipitation  
Precipitation 0.00 in - - ()
Sea Level Pressure  
Sea Level Pressure 30.06 in    
Wind  
Wind Speed 3 mph (NNE)    
Max Wind Speed 12 mph    
Max Gust Speed 21 mph    
Visibility 10 miles    
Events      
Averages and records for this station are not official NWS values.
T = Trace of Precipitation, MM = Missing Value Source: NWS Daily Summary

Daily Weather History Graph

Daily Weather History Graph

Search for Another Location

Airport or City:

Trip Planner

Search our weather history database for the weather conditions in past years. The results will help you decide how hot, cold, wet, or windy it might be!

Date:

Astronomy

Jul. 28, 2013 Rise Set
Actual Time 6:15 AM CDT 8:43 PM CDT
Civil Twilight 5:44 AM CDT 9:15 PM CDT
Nautical Twilight 5:05 AM CDT 9:54 PM CDT
Astronomical Twilight 4:21 AM CDT 10:37 PM CDT
Moon No Moon Rise 1:03 PM CDT (7/28)
Length of Visible Light 15h 30m
Length of Day
14h 28m
Waning Gibbous, 60% of the Moon is Illuminated
Jul 28
Waning Gibbous
Jul 29
Last Quarter
Aug 6
New
Aug 14
First Quarter
Aug 20
Full

Hourly Weather History & Observations

Time (CDT) Temp. Windchill Dew Point Humidity Pressure Visibility Wind Dir Wind Speed Gust Speed Precip Events Conditions
12:58 AM 50.4 °F - 47.1 °F 89% 30.07 in 10.0 mi Calm Calm - N/A   Clear
1:59 AM 51.4 °F - 47.8 °F 87% 30.07 in 10.0 mi Calm Calm - N/A   Clear
2:58 AM 47.1 °F - 46.2 °F 97% 30.07 in 10.0 mi Calm Calm - N/A   Clear
3:58 AM 45.9 °F - 45.7 °F 99% 30.05 in 10.0 mi WNW 2.3 mph - N/A   Clear
4:58 AM 47.7 °F - 46.0 °F 94% 30.05 in 10.0 mi WSW 3.5 mph - N/A   Clear
5:58 AM 44.8 °F 42.4 °F 44.1 °F 97% 30.06 in 10.0 mi NNE 4.6 mph - N/A   Clear
6:58 AM 46.0 °F - 45.9 °F 99% 30.08 in 7.0 mi Calm Calm - N/A   Clear
7:58 AM 55.8 °F - 51.4 °F 85% 30.09 in 10.0 mi Calm Calm - N/A   Clear
8:58 AM 62.2 °F - 50.2 °F 65% 30.09 in 10.0 mi NW 4.6 mph - N/A   Clear
9:58 AM 66.7 °F - 50.0 °F 55% 30.07 in 10.0 mi Variable 4.6 mph - N/A   Clear
10:58 AM 70.7 °F - 45.9 °F 41% 30.07 in 10.0 mi Variable 5.8 mph - N/A   Clear
11:58 AM 71.6 °F - 46.6 °F 41% 30.08 in 10.0 mi Variable 5.8 mph - N/A   Clear
12:58 PM 73.0 °F - 46.6 °F 39% 30.07 in 10.0 mi Variable 2.3 mph - N/A   Clear
1:58 PM 75.7 °F - 46.2 °F 35% 30.04 in 10.0 mi West 8.1 mph - N/A   Clear
2:28 PM 77.0 °F - 46.4 °F 34% 30.03 in 10.0 mi North 11.5 mph 20.7 mph N/A   Clear
2:58 PM 77.5 °F - 46.4 °F 33% 30.04 in 10.0 mi NNW 9.2 mph - N/A   Clear
3:58 PM 77.4 °F - 46.6 °F 34% 30.04 in 10.0 mi ENE 6.9 mph - N/A   Clear
4:58 PM 78.3 °F - 47.1 °F 33% 30.04 in 10.0 mi NE 3.5 mph - N/A   Clear
5:58 PM 77.9 °F - 46.4 °F 33% 30.04 in 10.0 mi Variable 3.5 mph - N/A   Clear
6:58 PM 76.8 °F - 46.4 °F 34% 30.03 in 10.0 mi ENE 3.5 mph - N/A   Clear
7:58 PM 73.4 °F - 51.1 °F 45% 30.02 in 10.0 mi ENE 5.8 mph - N/A   Clear
8:58 PM 67.1 °F - 50.7 °F 56% 30.04 in 10.0 mi NE 4.6 mph - N/A   Clear
9:58 PM 64.4 °F - 51.8 °F 64% 30.05 in 10.0 mi NNE 4.6 mph - N/A   Partly Cloudy
10:58 PM 63.3 °F - 51.1 °F 64% 30.06 in 10.0 mi NE 4.6 mph - N/A   Mostly Cloudy
11:58 PM 61.2 °F - 50.7 °F 69% 30.05 in 10.0 mi NNE 2.3 mph - N/A   Partly Cloudy